�������l�o���
Date,Time,MP-1(��Sv/h),MP-2(��Sv/h),MP-3(��Sv/h),MP-4(��Sv/h),MP-5(��Sv/h),MP-6(��Sv/h),MP-7(��Sv/h),MP-8(��Sv/h),����,����(m/s),���J
2022/06/18,00:00,0.576,0.846,0.534,1.019,0.718,0.346,0.595,0.559,��,3.6,��
2022/06/18,00:10,0.579,0.847,0.535,1.016,0.718,0.346,0.598,0.558,��쐼,4.0,��
2022/06/18,00:20,0.578,0.847,0.533,1.018,0.719,0.348,0.594,0.560,��쐼,4.1,��
2022/06/18,00:30,0.578,0.847,0.535,1.019,0.720,0.347,0.597,0.560,��쐼,4.5,��
2022/06/18,00:40,0.579,0.847,0.535,1.021,0.718,0.347,0.598,0.559,�쐼,5.4,��
2022/06/18,00:50,0.579,0.847,0.533,1.017,0.718,0.346,0.596,0.559,�쐼,4.2,��
2022/06/18,01:00,0.576,0.846,0.536,1.016,0.717,0.347,0.595,0.560,��쐼,4.4,��
2022/06/18,01:10,0.578,0.847,0.533,1.017,0.716,0.346,0.595,0.559,��쐼,4.8,��
2022/06/18,01:20,0.577,0.846,0.536,1.018,0.719,0.347,0.595,0.560,��쐼,4.9,��
2022/06/18,01:30,0.577,0.847,0.535,1.019,0.717,0.346,0.596,0.560,��쐼,6.3,��
2022/06/18,01:40,0.577,0.845,0.535,1.018,0.715,0.347,0.596,0.560,��쐼,5.3,��
2022/06/18,01:50,0.577,0.845,0.535,1.018,0.717,0.346,0.595,0.560,�쐼,3.9,��
2022/06/18,02:00,0.579,0.846,0.535,1.016,0.718,0.346,0.596,0.559,�쐼,2.9,��
2022/06/18,02:10,0.579,0.846,0.534,1.016,0.716,0.347,0.595,0.559,�쐼,2.9,��
2022/06/18,02:20,0.576,0.846,0.534,1.017,0.718,0.347,0.597,0.561,��쐼,3.0,��
2022/06/18,02:30,0.578,0.846,0.532,1.018,0.717,0.347,0.595,0.558,��쐼,5.6,��
2022/06/18,02:40,0.578,0.845,0.534,1.018,0.718,0.348,0.596,0.559,��쐼,4.7,��
2022/06/18,02:50,0.577,0.845,0.535,1.017,0.718,0.346,0.594,0.561,��쐼,5.1,��
2022/06/18,03:00,0.579,0.845,0.535,1.018,0.717,0.347,0.594,0.557,��쐼,4.3,��
2022/06/18,03:10,0.578,0.847,0.534,1.018,0.718,0.348,0.595,0.560,��쐼,3.9,��
2022/06/18,03:20,0.577,0.845,0.534,1.018,0.717,0.347,0.595,0.560,��쐼,3.7,��
2022/06/18,03:30,0.575,0.847,0.534,1.018,0.718,0.346,0.595,0.560,��쐼,3.4,��
2022/06/18,03:40,0.576,0.845,0.534,1.019,0.717,0.346,0.595,0.559,��쐼,4.1,��
2022/06/18,03:50,0.576,0.844,0.535,1.017,0.717,0.345,0.596,0.558,��쐼,4.6,��
2022/06/18,04:00,0.577,0.843,0.534,1.017,0.718,0.348,0.594,0.560,��,5.3,��
2022/06/18,04:10,0.577,0.845,0.535,1.017,0.717,0.346,0.595,0.560,��,5.4,��
2022/06/18,04:20,0.576,0.846,0.535,1.016,0.718,0.346,0.595,0.560,��,6.2,��
2022/06/18,04:30,0.578,0.843,0.534,1.019,0.718,0.347,0.596,0.560,��쐼,5.5,��
2022/06/18,04:40,0.578,0.846,0.534,1.017,0.717,0.348,0.595,0.559,�쐼,4.7,��
2022/06/18,04:50,0.578,0.846,0.535,1.015,0.718,0.347,0.593,0.559,�쐼,4.1,��
2022/06/18,05:00,0.578,0.847,0.532,1.018,0.717,0.347,0.595,0.561,�쐼,3.2,��
2022/06/18,05:10,0.577,0.846,0.533,1.018,0.718,0.347,0.594,0.560,���쐼,2.6,��
2022/06/18,05:20,0.576,0.845,0.533,1.017,0.718,0.346,0.594,0.559,���쐼,2.2,��
2022/06/18,05:30,0.576,0.845,0.535,1.018,0.715,0.346,0.595,0.560,�쐼,1.9,��
2022/06/18,05:40,0.578,0.850,0.533,1.019,0.716,0.346,0.594,0.558,�쐼,3.1,��
2022/06/18,05:50,0.578,0.846,0.535,1.019,0.717,0.346,0.595,0.560,�쐼,3.9,��
2022/06/18,06:00,0.578,0.847,0.533,1.015,0.718,0.347,0.595,0.559,�쐼,3.7,��
2022/06/18,06:10,0.578,0.846,0.533,1.017,0.716,0.346,0.593,0.560,�쐼,3.6,��
2022/06/18,06:20,0.578,0.847,0.533,1.019,0.715,0.346,0.594,0.560,���쐼,3.8,��
2022/06/18,06:30,0.579,0.846,0.533,1.018,0.717,0.346,0.593,0.559,���쐼,2.9,��
2022/06/18,06:40,0.578,0.844,0.532,1.018,0.715,0.346,0.595,0.559,�쐼,3.1,��
2022/06/18,06:50,0.577,0.846,0.534,1.018,0.718,0.345,0.593,0.559,�쐼,2.6,��
2022/06/18,07:00,0.579,0.845,0.534,1.016,0.716,0.347,0.594,0.559,��쐼,2.9,��
2022/06/18,07:10,0.576,0.846,0.534,1.017,0.718,0.345,0.594,0.558,��쐼,3.0,��
2022/06/18,07:20,0.576,0.845,0.533,1.016,0.718,0.344,0.594,0.559,��쐼,3.4,��
2022/06/18,07:30,0.576,0.845,0.534,1.019,0.716,0.345,0.592,0.560,��쐼,3.1,��
2022/06/18,07:40,0.576,0.846,0.534,1.019,0.716,0.346,0.594,0.559,��쐼,3.0,��
2022/06/18,07:50,0.579,0.846,0.534,1.017,0.717,0.345,0.591,0.557,�쐼,2.8,��
2022/06/18,08:00,0.576,0.844,0.533,1.018,0.717,0.344,0.592,0.558,��쐼,2.6,��
2022/06/18,08:10,0.578,0.846,0.532,1.017,0.716,0.345,0.593,0.558,�쐼,1.9,��
2022/06/18,08:20,0.578,0.845,0.534,1.016,0.718,0.345,0.593,0.558,��쐼,3.0,��
2022/06/18,08:30,0.578,0.845,0.535,1.021,0.718,0.346,0.592,0.556,��,4.6,��
2022/06/18,08:40,0.578,0.846,0.535,1.020,0.719,0.345,0.594,0.559,��쐼,3.5,��
2022/06/18,08:50,0.579,0.846,0.537,1.018,0.718,0.346,0.592,0.559,��,2.9,��
2022/06/18,09:00,0.578,0.845,0.535,1.017,0.719,0.346,0.592,0.559,��,4.1,��
2022/06/18,09:10,0.579,0.846,0.535,1.020,0.718,0.347,0.592,0.558,��,4.5,��
2022/06/18,09:20,0.579,0.847,0.533,1.018,0.717,0.347,0.595,0.558,��,5.0,��
2022/06/18,09:30,0.578,0.845,0.533,1.020,0.719,0.347,0.592,0.558,��,4.1,��
2022/06/18,09:40,0.577,0.846,0.536,1.019,0.720,0.347,0.594,0.558,��,3.5,��
2022/06/18,09:50,0.576,0.849,0.536,1.019,0.720,0.346,0.592,0.558,��,4.0,��
2022/06/18,10:00,0.578,0.848,0.535,1.020,0.720,0.347,0.594,0.559,��,4.4,��
2022/06/18,10:10,0.578,0.850,0.535,1.020,0.719,0.346,0.592,0.559,��,5.4,��
2022/06/18,10:20,0.577,0.851,0.535,1.020,0.721,0.348,0.594,0.559,��,4.6,��
2022/06/18,10:30,0.579,0.850,0.535,1.021,0.721,0.345,0.593,0.559,��쓌,5.3,��
2022/06/18,10:40,0.579,0.849,0.535,1.022,0.722,0.345,0.592,0.559,��쓌,5.8,��
2022/06/18,10:50,0.579,0.851,0.535,1.020,0.722,0.344,0.594,0.558,��쓌,6.2,��
2022/06/18,11:00,0.579,0.849,0.534,1.020,0.721,0.346,0.593,0.558,��쓌,6.0,��
2022/06/18,11:10,0.579,0.849,0.535,1.022,0.720,0.346,0.592,0.557,��쓌,6.0,��
2022/06/18,11:20,0.578,0.850,0.533,1.021,0.719,0.346,0.592,0.557,��쓌,7.3,��
2022/06/18,11:30,0.578,0.848,0.535,1.021,0.719,0.344,0.593,0.557,��쓌,6.8,��
2022/06/18,11:40,0.577,0.849,0.534,1.023,0.720,0.346,0.593,0.559,��쓌,7.1,��
2022/06/18,11:50,0.580,0.849,0.534,1.022,0.721,0.347,0.590,0.558,��쓌,6.5,��
2022/06/18,12:00,0.580,0.847,0.534,1.022,0.720,0.345,0.593,0.559,��쓌,5.6,��
2022/06/18,12:10,0.580,0.849,0.535,1.019,0.721,0.345,0.593,0.558,��쓌,4.9,��
2022/06/18,12:20,0.579,0.850,0.535,1.021,0.720,0.346,0.592,0.557,��,4.3,��
2022/06/18,12:30,0.578,0.851,0.535,1.021,0.719,0.345,0.592,0.557,��쓌,4.6,��
2022/06/18,12:40,0.577,0.849,0.534,1.019,0.721,0.346,0.593,0.558,��,4.4,��
2022/06/18,12:50,0.577,0.850,0.535,1.018,0.720,0.345,0.594,0.559,��,3.6,��
2022/06/18,13:00,0.577,0.850,0.534,1.019,0.717,0.346,0.594,0.560,��,2.8,��
2022/06/18,13:10,0.578,0.850,0.535,1.017,0.721,0.347,0.594,0.559,��,3.0,��
2022/06/18,13:20,0.577,0.848,0.537,1.022,0.720,0.346,0.597,0.559,��,4.4,��
2022/06/18,13:30,0.577,0.848,0.535,1.020,0.721,0.347,0.596,0.557,��,4.4,��
2022/06/18,13:40,0.577,0.851,0.536,1.018,0.721,0.347,0.596,0.557,��,5.8,��
2022/06/18,13:50,0.577,0.848,0.536,1.019,0.720,0.347,0.595,0.559,��,5.7,��
2022/06/18,14:00,0.577,0.850,0.536,1.018,0.720,0.346,0.595,0.560,��,5.0,��
2022/06/18,14:10,0.579,0.853,0.538,1.018,0.722,0.348,0.595,0.559,��,5.9,��
2022/06/18,14:20,0.579,0.851,0.537,1.020,0.723,0.349,0.596,0.559,��,5.4,��
2022/06/18,14:30,0.579,0.852,0.535,1.020,0.724,0.349,0.595,0.559,��,7.0,��
2022/06/18,14:40,0.578,0.852,0.539,1.022,0.723,0.348,0.595,0.558,��,6.9,��
2022/06/18,14:50,0.578,0.853,0.537,1.024,0.724,0.348,0.596,0.559,��,6.4,��
2022/06/18,15:00,0.577,0.851,0.539,1.024,0.723,0.348,0.596,0.560,��,6.1,��
2022/06/18,15:10,0.577,0.854,0.538,1.023,0.723,0.348,0.595,0.559,��,6.8,��
2022/06/18,15:20,0.580,0.854,0.538,1.026,0.724,0.349,0.596,0.559,��,7.2,��
2022/06/18,15:30,0.579,0.851,0.537,1.025,0.726,0.350,0.596,0.559,��,6.4,��
2022/06/18,15:40,0.581,0.850,0.537,1.022,0.727,0.348,0.596,0.560,��,6.6,��
2022/06/18,15:50,0.580,0.851,0.538,1.023,0.723,0.348,0.594,0.559,��,7.4,��
2022/06/18,16:00,0.581,0.851,0.536,1.021,0.723,0.349,0.595,0.559,��,7.8,��
2022/06/18,16:10,0.582,0.853,0.539,1.024,0.724,0.347,0.596,0.560,��,7.2,��
2022/06/18,16:20,0.581,0.852,0.537,1.024,0.724,0.346,0.595,0.558,��,6.2,��
2022/06/18,16:30,0.580,0.853,0.538,1.022,0.724,0.349,0.595,0.559,��,6.1,��
2022/06/18,16:40,0.580,0.852,0.538,1.023,0.724,0.349,0.596,0.559,��,5.2,��
2022/06/18,16:50,0.579,0.850,0.535,1.023,0.723,0.349,0.596,0.560,��,4.9,��
2022/06/18,17:00,0.578,0.852,0.536,1.024,0.725,0.349,0.595,0.562,��,5.3,��
2022/06/18,17:10,0.580,0.853,0.538,1.023,0.725,0.347,0.595,0.560,��,5.2,��
2022/06/18,17:20,0.582,0.856,0.538,1.026,0.724,0.348,0.595,0.560,��,5.0,��
2022/06/18,17:30,0.580,0.854,0.540,1.024,0.725,0.348,0.592,0.561,��,5.3,��
2022/06/18,17:40,0.580,0.855,0.540,1.024,0.724,0.348,0.595,0.561,��,6.2,��
2022/06/18,17:50,0.581,0.854,0.539,1.026,0.725,0.347,0.595,0.560,��,6.4,��
2022/06/18,18:00,0.581,0.852,0.539,1.025,0.726,0.349,0.595,0.562,��,6.0,��
2022/06/18,18:10,0.578,0.853,0.539,1.024,0.726,0.348,0.596,0.562,��,4.8,��
2022/06/18,18:20,0.580,0.855,0.539,1.025,0.724,0.347,0.596,0.562,��,4.7,��
2022/06/18,18:30,0.580,0.850,0.537,1.025,0.727,0.348,0.593,0.560,��,4.6,��
2022/06/18,18:40,0.580,0.852,0.538,1.026,0.725,0.348,0.593,0.561,��,5.9,��
2022/06/18,18:50,0.580,0.852,0.538,1.026,0.724,0.348,0.596,0.562,��,5.2,��
2022/06/18,19:00,0.579,0.850,0.539,1.025,0.724,0.349,0.596,0.561,��,5.1,��
2022/06/18,19:10,0.580,0.854,0.538,1.027,0.725,0.348,0.596,0.561,��,4.8,��
2022/06/18,19:20,0.581,0.853,0.537,1.027,0.725,0.347,0.597,0.562,��,5.1,��
2022/06/18,19:30,0.580,0.851,0.538,1.025,0.727,0.348,0.594,0.563,��,4.2,��
2022/06/18,19:40,0.579,0.851,0.537,1.026,0.724,0.347,0.595,0.561,��쐼,4.3,��
2022/06/18,19:50,0.582,0.854,0.538,1.026,0.725,0.348,0.595,0.562,��쐼,4.3,��
2022/06/18,20:00,0.580,0.853,0.539,1.027,0.724,0.349,0.595,0.561,��쐼,5.1,��
2022/06/18,20:10,0.582,0.854,0.539,1.025,0.725,0.348,0.594,0.562,��,5.7,��
2022/06/18,20:20,0.583,0.854,0.539,1.025,0.725,0.349,0.596,0.562,��쐼,5.6,��
2022/06/18,20:30,0.581,0.856,0.539,1.028,0.723,0.347,0.596,0.562,��쐼,5.6,��
2022/06/18,20:40,0.583,0.855,0.539,1.026,0.724,0.347,0.596,0.562,��,6.0,��
2022/06/18,20:50,0.580,0.854,0.538,1.027,0.727,0.347,0.596,0.561,��,7.3,��
2022/06/18,21:00,0.582,0.855,0.540,1.028,0.724,0.349,0.596,0.562,��,6.9,��
2022/06/18,21:10,0.582,0.853,0.539,1.026,0.724,0.349,0.596,0.561,��,6.7,��
2022/06/18,21:20,0.580,0.854,0.539,1.027,0.724,0.348,0.595,0.563,��,5.9,��
2022/06/18,21:30,0.581,0.856,0.541,1.026,0.725,0.348,0.596,0.562,��,6.3,��
2022/06/18,21:40,0.580,0.853,0.538,1.027,0.725,0.347,0.595,0.561,��,6.8,��
2022/06/18,21:50,0.582,0.854,0.539,1.028,0.726,0.348,0.595,0.562,��쐼,5.4,��
2022/06/18,22:00,0.580,0.856,0.538,1.028,0.725,0.347,0.595,0.562,��쐼,5.4,��
2022/06/18,22:10,0.580,0.854,0.539,1.026,0.725,0.349,0.596,0.564,��쐼,5.1,��
2022/06/18,22:20,0.579,0.855,0.539,1.026,0.723,0.348,0.595,0.563,��쐼,4.9,��
2022/06/18,22:30,0.578,0.856,0.540,1.027,0.725,0.347,0.596,0.560,��쐼,4.3,��
2022/06/18,22:40,0.581,0.855,0.540,1.026,0.725,0.348,0.596,0.562,��,3.2,��
2022/06/18,22:50,0.581,0.853,0.538,1.025,0.725,0.348,0.595,0.561,��쐼,3.6,��
2022/06/18,23:00,0.581,0.857,0.539,1.028,0.725,0.349,0.594,0.562,��쐼,3.6,��
2022/06/18,23:10,0.581,0.855,0.539,1.026,0.724,0.349,0.595,0.561,��쐼,4.8,��
2022/06/18,23:20,0.582,0.855,0.539,1.026,0.727,0.348,0.595,0.560,��쐼,5.0,��
2022/06/18,23:30,0.582,0.854,0.539,1.024,0.727,0.348,0.596,0.561,��쐼,5.4,��
2022/06/18,23:40,0.582,0.855,0.540,1.026,0.726,0.349,0.595,0.562,�쐼,4.1,��
2022/06/18,23:50,0.583,0.856,0.540,1.027,0.725,0.349,0.597,0.562,�쐼,3.6,��
